Location: Carbonear
(47.7333°N, 53.2500°W)
Time: 12:52:21
(UTC+00:00)

AO-109 - Visible Passes

Search period start: 08 December 2022 00:00
Search period end: 18 December 2022 00:00
Orbit: 453 x 506 km, 60.7° (Epoch: 07 December)

Date Brightness Start Highest point End Pass type
(mag) Time Alt. Az. Time Alt. Az. Time Alt. Az.
08 Dec ? 10:13:47 10° NNW 10:16:02 15° NNE 10:18:16 10° ENE visible
09 Dec ? 09:46:16 10° NNW 09:48:18 14° NNE 09:50:21 10° NE visible
10 Dec ? 09:19:33 12° N 09:20:34 13° NNE 09:22:26 10° NE visible
11 Dec ? 08:52:49 13° NNE 08:52:49 13° NNE 08:54:28 10° NE visible
11 Dec ? 10:27:38 10° NNW 10:30:59 36° NE 10:34:20 10° ESE visible
12 Dec ? 08:26:05 11° NNE 08:26:05 11° NNE 08:26:29 10° NE visible
12 Dec ? 10:00:18 12° NNW 10:03:15 31° NE 10:06:31 10° E visible
13 Dec ? 09:33:34 17° NNW 09:35:30 28° NNE 09:38:38 10° E visible
14 Dec ? 09:06:52 22° N 09:07:42 25° NNE 09:10:44 10° E visible
15 Dec ? 08:40:09 22° NE 08:40:09 22° NE 08:42:46 10° E visible
15 Dec ? 10:14:22 13° NW 10:17:28 65° SW 10:21:02 10° SE visible
16 Dec ? 08:13:29 16° ENE 08:13:29 16° ENE 08:14:47 10° ENE visible
16 Dec ? 09:47:42 24° NW 09:49:43 80° SW 09:53:18 10° SE visible
17 Dec ? 09:21:03 49° NW 09:21:56 85° NE 09:25:31 10° SE visible
